カタログに戻る

STARLINK-32733

運用中通信VLEO
NORAD 62477·PAYLOAD·🇺🇸 United States

打ち上げ Dec 31, 2024 から Cape Canaveral Space Force Station

Loading…

次のパス (今後24時間)

TLE

最新Source: CelesTrak SupGP

元期: Sep 14, 2026, 22:31 UTC

1 62477C 24254R   26257.93868056  .00015263  00000+0  55280-3 0  2576
2 62477  43.0045  27.2089 0001938 271.8723 336.4091 15.27571748    17

AllMySatでSTARLINK-32733をリアルタイム追跡

Download on the App Store